Back to catalog

STARLINK-37717

AliveCommunicationsSSO
NORAD 100226·PAYLOAD·🇺🇸 United States

Launched Aug 4, 2026 from Vandenberg Space Force Base

Loading…

Next Passes (next 24 hours)

TLE

FreshSource: Space-Track

Epoch: Sep 14, 2026, 14:46 UTC

1 A0226U 26177P   26257.61558460  .00035399  00000-0  64919-3 0  9991
2 A0226  97.2838 308.4195 0000804 128.3648 231.7676 15.49207753  7588

Track STARLINK-37717 in real time with AllMySat

Download on the App Store